Year,Month,Day,Hour,Minute,Value (Times are PST for temperature in C)
2007,01,24,00,00,7.00
2007,01,24,00,01,7.00
2007,01,24,00,02,7.00
2007,01,24,00,03,7.00
2007,01,24,00,04,7.00
2007,01,24,00,05,7.00
2007,01,24,00,06,7.00
2007,01,24,00,07,7.00
2007,01,24,00,08,7.00
2007,01,24,00,09,7.00
2007,01,24,00,10,7.00
2007,01,24,00,11,6.90
2007,01,24,00,12,6.90
2007,01,24,00,13,6.90
2007,01,24,00,14,6.90
2007,01,24,00,15,6.90
2007,01,24,00,16,6.90
2007,01,24,00,17,6.80
2007,01,24,00,18,6.80
2007,01,24,00,19,6.80
2007,01,24,00,20,6.80
2007,01,24,00,21,6.80
2007,01,24,00,22,6.80
2007,01,24,00,23,6.80
2007,01,24,00,24,6.70
2007,01,24,00,25,6.70
2007,01,24,00,26,6.70
2007,01,24,00,27,6.70
2007,01,24,00,28,6.70
2007,01,24,00,29,6.60
2007,01,24,00,30,6.60
2007,01,24,00,31,6.60
2007,01,24,00,32,6.60
2007,01,24,00,33,6.60
2007,01,24,00,34,6.60
2007,01,24,00,35,6.50
2007,01,24,00,36,6.50
2007,01,24,00,37,6.50
2007,01,24,00,38,6.40
2007,01,24,00,39,6.40
2007,01,24,00,40,6.40
2007,01,24,00,41,6.40
2007,01,24,00,42,6.40
2007,01,24,00,43,6.40
2007,01,24,00,44,6.30
2007,01,24,00,45,6.30
2007,01,24,00,46,6.30
2007,01,24,00,47,6.30
2007,01,24,00,48,6.30
2007,01,24,00,49,6.20
2007,01,24,00,50,6.20
2007,01,24,00,51,6.20
2007,01,24,00,52,6.20
2007,01,24,00,53,6.20
2007,01,24,00,54,6.20
2007,01,24,00,55,6.10
2007,01,24,00,56,6.10
2007,01,24,00,57,6.10
2007,01,24,00,58,6.10
2007,01,24,00,59,6.10
2007,01,24,01,00,6.10
2007,01,24,01,01,6.00
2007,01,24,01,02,6.00
2007,01,24,01,03,6.00
2007,01,24,01,04,5.90
2007,01,24,01,05,5.90
2007,01,24,01,06,5.90
2007,01,24,01,07,5.90
2007,01,24,01,08,5.90
2007,01,24,01,09,5.90
2007,01,24,01,10,5.80
2007,01,24,01,11,5.80
2007,01,24,01,12,5.80
2007,01,24,01,13,5.80
2007,01,24,01,14,5.80
2007,01,24,01,15,5.80
2007,01,24,01,16,5.80
2007,01,24,01,17,5.80
2007,01,24,01,18,5.80
2007,01,24,01,19,5.80
2007,01,24,01,20,5.70
2007,01,24,01,21,5.70
2007,01,24,01,22,5.70
2007,01,24,01,23,5.70
2007,01,24,01,24,5.70
2007,01,24,01,25,5.70
2007,01,24,01,26,5.70
2007,01,24,01,27,5.60
2007,01,24,01,28,5.60
2007,01,24,01,29,5.60
2007,01,24,01,30,5.60
2007,01,24,01,31,5.60
2007,01,24,01,32,5.60
2007,01,24,01,33,5.60
2007,01,24,01,34,5.60
2007,01,24,01,35,5.60
2007,01,24,01,36,5.60
2007,01,24,01,37,5.60
2007,01,24,01,38,5.60
2007,01,24,01,39,5.60
2007,01,24,01,40,5.70
2007,01,24,01,41,5.70
2007,01,24,01,42,5.70
2007,01,24,01,43,5.60
2007,01,24,01,44,5.60
2007,01,24,01,45,5.60
2007,01,24,01,46,5.60
2007,01,24,01,47,5.60
2007,01,24,01,48,5.60
2007,01,24,01,49,5.60
2007,01,24,01,50,5.60
2007,01,24,01,51,5.60
2007,01,24,01,52,5.60
2007,01,24,01,53,5.60
2007,01,24,01,54,5.60
2007,01,24,01,55,5.60
2007,01,24,01,56,5.60
2007,01,24,01,57,5.60
2007,01,24,01,58,5.60
2007,01,24,01,59,5.60
2007,01,24,02,00,5.60
2007,01,24,02,01,5.60
2007,01,24,02,02,5.50
2007,01,24,02,03,5.50
2007,01,24,02,04,5.50
2007,01,24,02,05,5.50
2007,01,24,02,06,5.50
2007,01,24,02,07,5.40
2007,01,24,02,08,5.40
2007,01,24,02,09,5.40
2007,01,24,02,10,5.40
2007,01,24,02,11,5.40
2007,01,24,02,12,5.40
2007,01,24,02,13,5.40
2007,01,24,02,14,5.40
2007,01,24,02,15,5.40
2007,01,24,02,16,5.40
2007,01,24,02,17,5.40
2007,01,24,02,18,5.40
2007,01,24,02,19,5.40
2007,01,24,02,20,5.40
2007,01,24,02,21,5.40
2007,01,24,02,22,5.30
2007,01,24,02,23,5.30
2007,01,24,02,24,5.30
2007,01,24,02,25,5.30
2007,01,24,02,26,5.30
2007,01,24,02,27,5.30
2007,01,24,02,28,5.30
2007,01,24,02,29,5.30
2007,01,24,02,30,5.30
2007,01,24,02,31,5.30
2007,01,24,02,32,5.30
2007,01,24,02,33,5.30
2007,01,24,02,34,5.30
2007,01,24,02,35,5.30
2007,01,24,02,36,5.30
2007,01,24,02,37,5.30
2007,01,24,02,38,5.30
2007,01,24,02,39,5.30
2007,01,24,02,40,5.20
2007,01,24,02,41,5.20
2007,01,24,02,42,5.20
2007,01,24,02,43,5.20
2007,01,24,02,44,5.20
2007,01,24,02,45,5.20
2007,01,24,02,46,5.20
2007,01,24,02,47,5.20
2007,01,24,02,48,5.20
2007,01,24,02,49,5.20
2007,01,24,02,50,5.20
2007,01,24,02,51,5.20
2007,01,24,02,52,5.10
2007,01,24,02,53,5.10
2007,01,24,02,54,5.10
2007,01,24,02,55,5.10
2007,01,24,02,56,5.10
2007,01,24,02,57,5.10
2007,01,24,02,58,5.10
2007,01,24,02,59,5.10
2007,01,24,03,00,5.10
2007,01,24,03,01,5.10
2007,01,24,03,02,5.10
2007,01,24,03,03,5.10
2007,01,24,03,04,5.10
2007,01,24,03,05,5.10
2007,01,24,03,06,5.10
2007,01,24,03,07,5.10
2007,01,24,03,08,5.10
2007,01,24,03,09,5.10
2007,01,24,03,10,5.10
2007,01,24,03,11,5.10
2007,01,24,03,12,5.10
2007,01,24,03,13,5.00
2007,01,24,03,14,5.00
2007,01,24,03,15,5.00
2007,01,24,03,16,5.00
2007,01,24,03,17,5.00
2007,01,24,03,18,5.00
2007,01,24,03,19,5.00
2007,01,24,03,20,5.00
2007,01,24,03,21,5.00
2007,01,24,03,22,5.00
2007,01,24,03,23,5.10
2007,01,24,03,24,5.10
2007,01,24,03,25,5.00
2007,01,24,03,26,5.00
2007,01,24,03,27,5.00
2007,01,24,03,28,5.00
2007,01,24,03,29,5.00
2007,01,24,03,30,5.00
2007,01,24,03,31,5.00
2007,01,24,03,32,4.90
2007,01,24,03,33,4.90
2007,01,24,03,34,4.90
2007,01,24,03,35,4.90
2007,01,24,03,36,4.90
2007,01,24,03,37,4.90
2007,01,24,03,38,4.90
2007,01,24,03,39,4.90
2007,01,24,03,40,4.90
2007,01,24,03,41,4.90
2007,01,24,03,42,4.90
2007,01,24,03,43,4.80
2007,01,24,03,44,4.80
2007,01,24,03,45,4.80
2007,01,24,03,46,4.80
2007,01,24,03,47,4.80
2007,01,24,03,48,4.80
2007,01,24,03,49,4.80
2007,01,24,03,50,4.80
2007,01,24,03,51,4.80
2007,01,24,03,52,4.80
2007,01,24,03,53,4.70
2007,01,24,03,54,4.70
2007,01,24,03,55,4.70
2007,01,24,03,56,4.70
2007,01,24,03,57,4.60
2007,01,24,03,58,4.60
2007,01,24,03,59,4.60
2007,01,24,04,00,4.60
2007,01,24,04,01,4.60
2007,01,24,04,02,4.50
2007,01,24,04,03,4.50
2007,01,24,04,04,4.50
2007,01,24,04,05,4.50
2007,01,24,04,06,4.40
2007,01,24,04,07,4.40
2007,01,24,04,08,4.40
2007,01,24,04,09,4.40
2007,01,24,04,10,4.40
2007,01,24,04,11,4.30
2007,01,24,04,12,4.30
2007,01,24,04,13,4.30
2007,01,24,04,14,4.20
2007,01,24,04,15,4.20
2007,01,24,04,16,4.20
2007,01,24,04,17,4.20
2007,01,24,04,18,4.20
2007,01,24,04,19,4.20
2007,01,24,04,20,4.20
2007,01,24,04,21,4.10
2007,01,24,04,22,4.10
2007,01,24,04,23,4.10
2007,01,24,04,24,4.10
2007,01,24,04,25,4.10
2007,01,24,04,26,4.10
2007,01,24,04,27,4.00
2007,01,24,04,28,4.00
2007,01,24,04,29,4.00
2007,01,24,04,30,4.00
2007,01,24,04,31,4.00
2007,01,24,04,32,3.90
2007,01,24,04,33,3.90
2007,01,24,04,34,3.90
2007,01,24,04,35,3.90
2007,01,24,04,36,3.90
2007,01,24,04,37,3.90
2007,01,24,04,38,3.90
2007,01,24,04,39,3.80
2007,01,24,04,40,3.80
2007,01,24,04,41,3.80
2007,01,24,04,42,3.80
2007,01,24,04,43,3.80
2007,01,24,04,44,3.70
2007,01,24,04,45,3.70
2007,01,24,04,46,3.70
2007,01,24,04,47,3.60
2007,01,24,04,48,3.60
2007,01,24,04,49,3.60
2007,01,24,04,50,3.60
2007,01,24,04,51,3.60
2007,01,24,04,52,3.50
2007,01,24,04,53,3.50
2007,01,24,04,54,3.50
2007,01,24,04,55,3.50
2007,01,24,04,56,3.40
2007,01,24,04,57,3.40
2007,01,24,04,58,3.40
2007,01,24,04,59,3.40
2007,01,24,05,00,3.40
2007,01,24,05,01,3.40
2007,01,24,05,02,3.30
2007,01,24,05,03,3.30
2007,01,24,05,04,3.30
2007,01,24,05,05,3.30
2007,01,24,05,06,3.30
2007,01,24,05,07,3.30
2007,01,24,05,08,3.20
2007,01,24,05,09,3.20
2007,01,24,05,10,3.20
2007,01,24,05,11,3.20
2007,01,24,05,12,3.20
2007,01,24,05,13,3.20
2007,01,24,05,14,3.20
2007,01,24,05,15,3.20
2007,01,24,05,16,3.20
2007,01,24,05,17,3.20
2007,01,24,05,18,3.20
2007,01,24,05,19,3.20
2007,01,24,05,20,3.20
2007,01,24,05,21,3.10
2007,01,24,05,22,3.10
2007,01,24,05,23,3.10
2007,01,24,05,24,3.10
2007,01,24,05,25,3.10
2007,01,24,05,26,3.00
2007,01,24,05,27,3.00
2007,01,24,05,28,3.00
2007,01,24,05,29,2.90
2007,01,24,05,30,2.90
2007,01,24,05,31,2.90
2007,01,24,05,32,2.90
2007,01,24,05,33,2.90
2007,01,24,05,34,2.90
2007,01,24,05,35,2.90
2007,01,24,05,36,2.90
2007,01,24,05,37,2.90
2007,01,24,05,38,2.90
2007,01,24,05,39,2.90
2007,01,24,05,40,2.90
2007,01,24,05,41,2.80
2007,01,24,05,42,2.80
2007,01,24,05,43,2.80
2007,01,24,05,44,2.80
2007,01,24,05,45,2.80
2007,01,24,05,46,2.80
2007,01,24,05,47,2.80
2007,01,24,05,48,2.80
2007,01,24,05,49,2.80
2007,01,24,05,50,2.80
2007,01,24,05,51,2.80
2007,01,24,05,52,2.80
2007,01,24,05,53,2.80
2007,01,24,05,54,2.80
2007,01,24,05,55,2.80
2007,01,24,05,56,2.80
2007,01,24,05,57,2.80
2007,01,24,05,58,2.80
2007,01,24,05,59,2.80
2007,01,24,06,00,2.80
2007,01,24,06,01,2.80
2007,01,24,06,02,2.80
2007,01,24,06,03,2.80
2007,01,24,06,04,2.80
2007,01,24,06,05,2.80
2007,01,24,06,06,2.80
2007,01,24,06,07,2.80
2007,01,24,06,08,2.80
2007,01,24,06,09,2.80
2007,01,24,06,10,2.90
2007,01,24,06,11,2.90
2007,01,24,06,12,2.90
2007,01,24,06,13,2.90
2007,01,24,06,14,2.90
2007,01,24,06,15,2.90
2007,01,24,06,16,2.90
2007,01,24,06,17,2.90
2007,01,24,06,18,2.90
2007,01,24,06,19,3.00
2007,01,24,06,20,3.00
2007,01,24,06,21,3.00
2007,01,24,06,22,3.00
2007,01,24,06,23,3.00
2007,01,24,06,24,3.00
2007,01,24,06,25,3.10
2007,01,24,06,26,3.10
2007,01,24,06,27,3.10
2007,01,24,06,28,3.10
2007,01,24,06,29,3.10
2007,01,24,06,30,3.10
2007,01,24,06,31,3.10
2007,01,24,06,32,3.10
2007,01,24,06,33,3.10
2007,01,24,06,34,3.10
2007,01,24,06,35,3.20
2007,01,24,06,36,3.20
2007,01,24,06,37,3.20
2007,01,24,06,38,3.20
2007,01,24,06,39,3.20
2007,01,24,06,40,3.20
2007,01,24,06,41,3.20
2007,01,24,06,42,3.20
2007,01,24,06,43,3.20
2007,01,24,06,44,3.20
2007,01,24,06,45,3.20
2007,01,24,06,46,3.20
2007,01,24,06,47,3.30
2007,01,24,06,48,3.30
2007,01,24,06,49,3.30
2007,01,24,06,50,3.30
2007,01,24,06,51,3.30
2007,01,24,06,52,3.30
2007,01,24,06,53,3.30
2007,01,24,06,54,3.30
2007,01,24,06,55,3.30
2007,01,24,06,56,3.30
2007,01,24,06,57,3.30
2007,01,24,06,58,3.30
2007,01,24,06,59,3.40
2007,01,24,07,00,3.30
2007,01,24,07,01,3.40
2007,01,24,07,02,3.40
2007,01,24,07,03,3.40
2007,01,24,07,04,3.40
2007,01,24,07,05,3.40
2007,01,24,07,06,3.40
2007,01,24,07,07,3.40
2007,01,24,07,08,3.40
2007,01,24,07,09,3.40
2007,01,24,07,10,3.40
2007,01,24,07,11,3.40
2007,01,24,07,12,3.40
2007,01,24,07,13,3.40
2007,01,24,07,14,3.50
2007,01,24,07,15,3.50
2007,01,24,07,16,3.50
2007,01,24,07,17,3.50
2007,01,24,07,18,3.50
2007,01,24,07,19,3.60
2007,01,24,07,20,3.60
2007,01,24,07,21,3.60
2007,01,24,07,22,3.60
2007,01,24,07,23,3.60
2007,01,24,07,24,3.60
2007,01,24,07,25,3.60
2007,01,24,07,26,3.60
2007,01,24,07,27,3.60
2007,01,24,07,28,3.60
2007,01,24,07,29,3.60
2007,01,24,07,30,3.60
2007,01,24,07,31,3.60
2007,01,24,07,32,3.60
2007,01,24,07,33,3.60
2007,01,24,07,34,3.60
2007,01,24,07,35,3.60
2007,01,24,07,36,3.70
2007,01,24,07,37,3.70
2007,01,24,07,38,3.70
2007,01,24,07,39,3.70
2007,01,24,07,40,3.70
2007,01,24,07,41,3.70
2007,01,24,07,42,3.70
2007,01,24,07,43,3.70
2007,01,24,07,44,3.70
2007,01,24,07,45,3.70
2007,01,24,07,46,3.70
2007,01,24,07,47,3.70
2007,01,24,07,48,3.70
2007,01,24,07,49,3.70
2007,01,24,07,50,3.70
2007,01,24,07,51,3.80
2007,01,24,07,52,3.80
2007,01,24,07,53,3.80
2007,01,24,07,54,3.80
2007,01,24,07,55,3.80
2007,01,24,07,56,3.80
2007,01,24,07,57,3.80
2007,01,24,07,58,3.80
2007,01,24,07,59,3.80
2007,01,24,08,00,3.80
2007,01,24,08,01,3.80
2007,01,24,08,02,3.80
2007,01,24,08,03,3.80
2007,01,24,08,04,3.80
2007,01,24,08,05,3.90
2007,01,24,08,06,3.90
2007,01,24,08,07,3.90
2007,01,24,08,08,3.90
2007,01,24,08,09,3.90
2007,01,24,08,10,3.90
2007,01,24,08,11,3.90
2007,01,24,08,12,3.90
2007,01,24,08,13,3.90
2007,01,24,08,14,3.90
2007,01,24,08,15,3.90
2007,01,24,08,16,4.00
2007,01,24,08,17,4.00
2007,01,24,08,18,4.00
2007,01,24,08,19,4.00
2007,01,24,08,20,4.00
2007,01,24,08,21,4.00
2007,01,24,08,22,4.00
2007,01,24,08,23,4.00
2007,01,24,08,24,4.00
2007,01,24,08,25,4.10
2007,01,24,08,26,4.10
2007,01,24,08,27,4.10
2007,01,24,08,28,4.10
2007,01,24,08,29,4.10
2007,01,24,08,30,4.10
2007,01,24,08,31,4.10
2007,01,24,08,32,4.20
2007,01,24,08,33,4.20
2007,01,24,08,34,4.20
2007,01,24,08,35,4.20
2007,01,24,08,36,4.20
2007,01,24,08,37,4.20
2007,01,24,08,38,4.30
2007,01,24,08,39,4.30
2007,01,24,08,40,4.30
2007,01,24,08,41,4.30
2007,01,24,08,42,4.30
2007,01,24,08,43,4.40
2007,01,24,08,44,4.40
2007,01,24,08,45,4.40
2007,01,24,08,46,4.40
2007,01,24,08,47,4.40
2007,01,24,08,48,4.50
2007,01,24,08,49,4.50
2007,01,24,08,50,4.50
2007,01,24,08,51,4.50
2007,01,24,08,52,4.50
2007,01,24,08,53,4.50
2007,01,24,08,54,4.60
2007,01,24,08,55,4.60
2007,01,24,08,56,4.60
2007,01,24,08,57,4.60
2007,01,24,08,58,4.60
2007,01,24,08,59,4.60
2007,01,24,09,00,4.60
2007,01,24,09,01,4.70
2007,01,24,09,02,4.70
2007,01,24,09,03,4.70
2007,01,24,09,04,4.70
2007,01,24,09,05,4.70
2007,01,24,09,06,4.80
2007,01,24,09,07,4.80
2007,01,24,09,08,4.80
2007,01,24,09,09,4.80
2007,01,24,09,10,4.80
2007,01,24,09,11,4.80
2007,01,24,09,12,4.90
2007,01,24,09,13,4.90
2007,01,24,09,14,4.90
2007,01,24,09,15,4.90
2007,01,24,09,16,4.90
2007,01,24,09,17,4.90
2007,01,24,09,18,5.00
2007,01,24,09,19,5.00
2007,01,24,09,20,5.00
2007,01,24,09,21,5.00
2007,01,24,09,22,5.00
2007,01,24,09,23,5.00
2007,01,24,09,24,5.00
2007,01,24,09,25,5.10
2007,01,24,09,26,5.10
2007,01,24,09,27,5.10
2007,01,24,09,28,5.10
2007,01,24,09,29,5.10
2007,01,24,09,30,5.20
2007,01,24,09,31,5.20
2007,01,24,09,32,5.20
2007,01,24,09,33,5.20
2007,01,24,09,34,5.20
2007,01,24,09,35,5.20
2007,01,24,09,36,5.20
2007,01,24,09,37,5.20
2007,01,24,09,38,5.20
2007,01,24,09,39,5.20
2007,01,24,09,40,5.20
2007,01,24,09,41,5.30
2007,01,24,09,42,5.30
2007,01,24,09,43,5.30
2007,01,24,09,44,5.30
2007,01,24,09,45,5.30
2007,01,24,09,46,5.40
2007,01,24,09,47,5.40
2007,01,24,09,48,5.40
2007,01,24,09,49,5.40
2007,01,24,09,50,5.40
2007,01,24,09,51,5.40
2007,01,24,09,52,5.40
2007,01,24,09,53,5.30
2007,01,24,09,54,5.30
2007,01,24,09,55,5.30
2007,01,24,09,56,5.30
2007,01,24,09,57,5.30
2007,01,24,09,58,5.30
2007,01,24,09,59,5.40
2007,01,24,10,00,5.40
2007,01,24,10,01,5.50
2007,01,24,10,02,5.50
2007,01,24,10,03,5.50
2007,01,24,10,04,5.60
2007,01,24,10,05,5.60
2007,01,24,10,06,5.60
2007,01,24,10,07,5.60
2007,01,24,10,08,5.60
2007,01,24,10,09,5.60
2007,01,24,10,10,5.60
2007,01,24,10,11,5.60
2007,01,24,10,12,5.60
2007,01,24,10,13,5.60
2007,01,24,10,14,5.60
2007,01,24,10,15,5.60
2007,01,24,10,16,5.60
2007,01,24,10,17,5.60
2007,01,24,10,18,5.60
2007,01,24,10,19,5.60
2007,01,24,10,20,5.60
2007,01,24,10,21,5.60
2007,01,24,10,22,5.50
2007,01,24,10,23,5.50
2007,01,24,10,24,5.50
2007,01,24,10,25,5.50
2007,01,24,10,26,5.50
2007,01,24,10,27,5.50
2007,01,24,10,28,5.50
2007,01,24,10,29,5.50
2007,01,24,10,30,5.50
2007,01,24,10,31,5.50
2007,01,24,10,32,5.50
2007,01,24,10,33,5.50
2007,01,24,10,34,5.50
2007,01,24,10,35,5.50
2007,01,24,10,36,5.50
2007,01,24,10,37,5.60
2007,01,24,10,38,5.60
2007,01,24,10,39,5.60
2007,01,24,10,40,5.60
2007,01,24,10,41,5.70
2007,01,24,10,42,5.80
2007,01,24,10,43,5.80
2007,01,24,10,44,5.80
2007,01,24,10,45,5.80
2007,01,24,10,46,5.90
2007,01,24,10,47,6.00
2007,01,24,10,48,6.10
2007,01,24,10,49,6.20
2007,01,24,10,50,6.30
2007,01,24,10,51,6.30
2007,01,24,10,52,6.30
2007,01,24,10,53,6.40
2007,01,24,10,54,6.50
2007,01,24,10,55,6.60
2007,01,24,10,56,6.60
2007,01,24,10,57,6.70
2007,01,24,10,58,6.70
2007,01,24,10,59,6.80
2007,01,24,11,00,6.80
2007,01,24,11,01,6.80
2007,01,24,11,02,6.80
2007,01,24,11,03,6.80
2007,01,24,11,04,6.90
2007,01,24,11,05,6.90
2007,01,24,11,06,7.00
2007,01,24,11,07,7.00
2007,01,24,11,08,7.10
2007,01,24,11,09,7.20
2007,01,24,11,10,7.30
2007,01,24,11,11,7.40
2007,01,24,11,12,7.50
2007,01,24,11,13,7.60
2007,01,24,11,14,7.70
2007,01,24,11,15,7.70
2007,01,24,11,16,7.60
2007,01,24,11,17,7.60
2007,01,24,11,18,7.50
2007,01,24,11,19,7.50
2007,01,24,11,20,7.40
2007,01,24,11,21,7.40
2007,01,24,11,22,7.40
2007,01,24,11,23,7.40
2007,01,24,11,24,7.40
2007,01,24,11,25,7.40
2007,01,24,11,26,7.40
2007,01,24,11,27,7.50
2007,01,24,11,28,7.50
2007,01,24,11,29,7.60
2007,01,24,11,30,7.60
2007,01,24,11,31,7.70
2007,01,24,11,32,7.80
2007,01,24,11,33,7.90
2007,01,24,11,34,8.10
2007,01,24,11,35,8.20
2007,01,24,11,36,8.30
2007,01,24,11,37,8.40
2007,01,24,11,38,8.50
2007,01,24,11,39,8.60
2007,01,24,11,40,8.70
2007,01,24,11,41,8.70
2007,01,24,11,42,8.70
2007,01,24,11,43,8.80
2007,01,24,11,44,8.80
2007,01,24,11,45,8.80
2007,01,24,11,46,8.80
2007,01,24,11,47,8.80
2007,01,24,11,48,8.80
2007,01,24,11,49,8.90
2007,01,24,11,50,8.90
2007,01,24,11,51,8.90
2007,01,24,11,52,8.90
2007,01,24,11,53,8.90
2007,01,24,11,54,8.90
2007,01,24,11,55,8.90
2007,01,24,11,56,8.90
2007,01,24,11,57,8.80
2007,01,24,11,58,8.80
2007,01,24,11,59,8.70
2007,01,24,12,00,8.70
2007,01,24,12,01,8.70
2007,01,24,12,02,8.70
2007,01,24,12,03,8.70
2007,01,24,12,04,8.60
2007,01,24,12,05,8.60
2007,01,24,12,06,8.60
2007,01,24,12,07,8.60
2007,01,24,12,08,8.60
2007,01,24,12,09,8.60
2007,01,24,12,10,8.60
2007,01,24,12,11,8.60
2007,01,24,12,12,8.60
2007,01,24,12,13,8.60
2007,01,24,12,14,8.70
2007,01,24,12,15,8.70
2007,01,24,12,16,8.70
2007,01,24,12,17,8.80
2007,01,24,12,18,8.80
2007,01,24,12,19,8.80
2007,01,24,12,20,8.80
2007,01,24,12,21,8.90
2007,01,24,12,22,8.90
2007,01,24,12,23,8.90
2007,01,24,12,24,9.00
2007,01,24,12,25,9.00
2007,01,24,12,26,9.10
2007,01,24,12,27,9.10
2007,01,24,12,28,9.10
2007,01,24,12,29,9.20
2007,01,24,12,30,9.20
2007,01,24,12,31,9.30
2007,01,24,12,32,9.30
2007,01,24,12,33,9.30
2007,01,24,12,34,9.30
2007,01,24,12,35,9.40
2007,01,24,12,36,9.40
2007,01,24,12,37,9.40
2007,01,24,12,38,9.40
2007,01,24,12,39,9.40
2007,01,24,12,40,9.40
2007,01,24,12,41,9.50
2007,01,24,12,42,9.50
2007,01,24,12,43,9.60
2007,01,24,12,44,9.60
2007,01,24,12,45,9.60
2007,01,24,12,46,9.60
2007,01,24,12,47,9.60
2007,01,24,12,48,9.60
2007,01,24,12,49,9.60
2007,01,24,12,50,9.60
2007,01,24,12,51,9.60
2007,01,24,12,52,9.60
2007,01,24,12,53,9.60
2007,01,24,12,54,9.60
2007,01,24,12,55,9.50
2007,01,24,12,56,9.50
2007,01,24,12,57,9.40
2007,01,24,12,58,9.30
2007,01,24,12,59,9.30
2007,01,24,13,00,9.30
2007,01,24,13,01,9.30
2007,01,24,13,02,9.30
2007,01,24,13,03,9.30
2007,01,24,13,04,9.30
2007,01,24,13,05,9.30
2007,01,24,13,06,9.30
2007,01,24,13,07,9.30
2007,01,24,13,08,9.30
2007,01,24,13,09,9.30
2007,01,24,13,10,9.30
2007,01,24,13,11,9.30
2007,01,24,13,12,9.20
2007,01,24,13,13,9.20
2007,01,24,13,14,9.20
2007,01,24,13,15,9.20
2007,01,24,13,16,9.20
2007,01,24,13,17,9.20
2007,01,24,13,18,9.30
2007,01,24,13,19,9.30
2007,01,24,13,20,9.30
2007,01,24,13,21,9.40
2007,01,24,13,22,9.50
2007,01,24,13,23,9.50
2007,01,24,13,24,9.60
2007,01,24,13,25,9.70
2007,01,24,13,26,9.80
2007,01,24,13,27,9.90
2007,01,24,13,28,10.00
2007,01,24,13,29,10.10
2007,01,24,13,30,10.20
2007,01,24,13,31,10.30
2007,01,24,13,32,10.40
2007,01,24,13,33,10.50
2007,01,24,13,34,10.60
2007,01,24,13,35,10.70
2007,01,24,13,36,10.60
2007,01,24,13,37,10.60
2007,01,24,13,38,10.50
2007,01,24,13,39,10.40
2007,01,24,13,40,10.30
2007,01,24,13,41,10.20
2007,01,24,13,42,10.20
2007,01,24,13,43,10.10
2007,01,24,13,44,10.10
2007,01,24,13,45,10.10
2007,01,24,13,46,10.20
2007,01,24,13,47,10.20
2007,01,24,13,48,10.20
2007,01,24,13,49,10.20
2007,01,24,13,50,10.30
2007,01,24,13,51,10.30
2007,01,24,13,52,10.30
2007,01,24,13,53,10.40
2007,01,24,13,54,10.30
2007,01,24,13,55,10.30
2007,01,24,13,56,10.30
2007,01,24,13,57,10.40
2007,01,24,13,58,10.40
2007,01,24,13,59,10.40
2007,01,24,14,00,10.40
2007,01,24,14,01,10.50
2007,01,24,14,02,10.50
2007,01,24,14,03,10.60
2007,01,24,14,04,10.60
2007,01,24,14,05,10.60
2007,01,24,14,06,10.70
2007,01,24,14,07,10.70
2007,01,24,14,08,10.80
2007,01,24,14,09,10.80
2007,01,24,14,10,10.80
2007,01,24,14,11,10.80
2007,01,24,14,12,10.90
2007,01,24,14,13,10.90
2007,01,24,14,14,10.90
2007,01,24,14,15,10.90
2007,01,24,14,16,10.90
2007,01,24,14,17,10.80
2007,01,24,14,18,10.80
2007,01,24,14,19,10.80
2007,01,24,14,20,10.80
2007,01,24,14,21,10.80
2007,01,24,14,22,10.80
2007,01,24,14,23,10.70
2007,01,24,14,24,10.70
2007,01,24,14,25,10.60
2007,01,24,14,26,10.60
2007,01,24,14,27,10.50
2007,01,24,14,28,10.50
2007,01,24,14,29,10.50
2007,01,24,14,30,10.60
2007,01,24,14,31,10.60
2007,01,24,14,32,10.60
2007,01,24,14,33,10.60
2007,01,24,14,34,10.60
2007,01,24,14,35,10.60
2007,01,24,14,36,10.60
2007,01,24,14,37,10.60
2007,01,24,14,38,10.60
2007,01,24,14,39,10.60
2007,01,24,14,40,10.60
2007,01,24,14,41,10.60
2007,01,24,14,42,10.70
2007,01,24,14,43,10.70
2007,01,24,14,44,10.80
2007,01,24,14,45,10.80
2007,01,24,14,46,10.80
2007,01,24,14,47,10.90
2007,01,24,14,48,10.90
2007,01,24,14,49,10.90
2007,01,24,14,50,10.90
2007,01,24,14,51,10.90
2007,01,24,14,52,10.90
2007,01,24,14,53,10.90
2007,01,24,14,54,10.90
2007,01,24,14,55,10.90
2007,01,24,14,56,10.80
2007,01,24,14,57,10.80
2007,01,24,14,58,10.70
2007,01,24,14,59,10.70
2007,01,24,15,00,10.70
2007,01,24,15,01,10.70
2007,01,24,15,02,10.70
2007,01,24,15,03,10.70
2007,01,24,15,04,10.70
2007,01,24,15,05,10.70
2007,01,24,15,06,10.60
2007,01,24,15,07,10.50
2007,01,24,15,08,10.50
2007,01,24,15,09,10.40
2007,01,24,15,10,10.30
2007,01,24,15,11,10.20
2007,01,24,15,12,10.20
2007,01,24,15,13,10.10
2007,01,24,15,14,10.10
2007,01,24,15,15,10.00
2007,01,24,15,16,10.00
2007,01,24,15,17,10.00
2007,01,24,15,18,9.90
2007,01,24,15,19,9.80
2007,01,24,15,20,9.80
2007,01,24,15,21,9.80
2007,01,24,15,22,9.70
2007,01,24,15,23,9.70
2007,01,24,15,24,9.70
2007,01,24,15,25,9.70
2007,01,24,15,26,9.60
2007,01,24,15,27,9.60
2007,01,24,15,28,9.60
2007,01,24,15,29,9.60
2007,01,24,15,30,9.50
2007,01,24,15,31,9.40
2007,01,24,15,32,9.40
2007,01,24,15,33,9.40
2007,01,24,15,34,9.30
2007,01,24,15,35,9.30
2007,01,24,15,36,9.30
2007,01,24,15,37,9.30
2007,01,24,15,38,9.20
2007,01,24,15,39,9.20
2007,01,24,15,40,9.20
2007,01,24,15,41,9.20
2007,01,24,15,42,9.20
2007,01,24,15,43,9.20
2007,01,24,15,44,9.20
2007,01,24,15,45,9.20
2007,01,24,15,46,9.20
2007,01,24,15,47,9.10
2007,01,24,15,48,9.10
2007,01,24,15,49,9.10
2007,01,24,15,50,9.10
2007,01,24,15,51,9.10
2007,01,24,15,52,9.10
2007,01,24,15,53,9.10
2007,01,24,15,54,9.10
2007,01,24,15,55,9.00
2007,01,24,15,56,9.00
2007,01,24,15,57,9.00
2007,01,24,15,58,9.00
2007,01,24,15,59,9.00
2007,01,24,16,00,8.90
2007,01,24,16,01,8.90
2007,01,24,16,02,8.90
2007,01,24,16,03,8.90
2007,01,24,16,04,8.90
2007,01,24,16,05,8.90
2007,01,24,16,06,8.80
2007,01,24,16,07,8.80
2007,01,24,16,08,8.80
2007,01,24,16,09,8.80
2007,01,24,16,10,8.80
2007,01,24,16,11,8.80
2007,01,24,16,12,8.80
2007,01,24,16,13,8.80
2007,01,24,16,14,8.80
2007,01,24,16,15,8.80
2007,01,24,16,16,8.80
2007,01,24,16,17,8.80
2007,01,24,16,18,8.80
2007,01,24,16,19,8.80
2007,01,24,16,20,8.80
2007,01,24,16,21,8.80
2007,01,24,16,22,8.80
2007,01,24,16,23,8.80
2007,01,24,16,24,8.80
2007,01,24,16,25,8.80
2007,01,24,16,26,8.80
2007,01,24,16,27,8.80
2007,01,24,16,28,8.80
2007,01,24,16,29,8.80
2007,01,24,16,30,8.80
2007,01,24,16,31,8.80
2007,01,24,16,32,8.80
2007,01,24,16,33,8.80
2007,01,24,16,34,8.80
2007,01,24,16,35,8.70
2007,01,24,16,36,8.70
2007,01,24,16,37,8.70
2007,01,24,16,38,8.70
2007,01,24,16,39,8.70
2007,01,24,16,40,8.70
2007,01,24,16,41,8.60
2007,01,24,16,42,8.60
2007,01,24,16,43,8.60
2007,01,24,16,44,8.60
2007,01,24,16,45,8.50
2007,01,24,16,46,8.50
2007,01,24,16,47,8.50
2007,01,24,16,48,8.40
2007,01,24,16,49,8.40
2007,01,24,16,50,8.40
2007,01,24,16,51,8.30
2007,01,24,16,52,8.30
2007,01,24,16,53,8.30
2007,01,24,16,54,8.20
2007,01,24,16,55,8.20
2007,01,24,16,56,8.20
2007,01,24,16,57,8.20
2007,01,24,16,58,8.10
2007,01,24,16,59,8.10
2007,01,24,17,00,8.10
2007,01,24,17,01,8.10
2007,01,24,17,02,8.10
2007,01,24,17,03,8.10
2007,01,24,17,04,8.10
2007,01,24,17,05,8.00
2007,01,24,17,06,8.00
2007,01,24,17,07,8.00
2007,01,24,17,08,8.00
2007,01,24,17,09,7.90
2007,01,24,17,10,7.90
2007,01,24,17,11,7.90
2007,01,24,17,12,7.90
2007,01,24,17,13,7.90
2007,01,24,17,14,7.90
2007,01,24,17,15,7.80
2007,01,24,17,16,7.80
2007,01,24,17,17,7.80
2007,01,24,17,18,7.80
2007,01,24,17,19,7.80
2007,01,24,17,20,7.70
2007,01,24,17,21,7.60
2007,01,24,17,22,7.50
2007,01,24,17,23,7.50
2007,01,24,17,24,7.40
2007,01,24,17,25,7.40
2007,01,24,17,26,7.40
2007,01,24,17,27,7.40
2007,01,24,17,28,7.40
2007,01,24,17,29,7.40
2007,01,24,17,30,7.40
2007,01,24,17,31,7.30
2007,01,24,17,32,7.30
2007,01,24,17,33,7.30
2007,01,24,17,34,7.20
2007,01,24,17,35,7.20
2007,01,24,17,36,7.20
2007,01,24,17,37,7.30
2007,01,24,17,38,7.30
2007,01,24,17,39,7.30
2007,01,24,17,40,7.20
2007,01,24,17,41,7.20
2007,01,24,17,42,7.20
2007,01,24,17,43,7.20
2007,01,24,17,44,7.20
2007,01,24,17,45,7.10
2007,01,24,17,46,7.10
2007,01,24,17,47,7.10
2007,01,24,17,48,7.10
2007,01,24,17,49,7.10
2007,01,24,17,50,7.10
2007,01,24,17,51,7.10
2007,01,24,17,52,7.00
2007,01,24,17,53,6.90
2007,01,24,17,54,6.90
2007,01,24,17,55,6.90
2007,01,24,17,56,6.90
2007,01,24,17,57,6.90
2007,01,24,17,58,7.00
2007,01,24,17,59,6.90
2007,01,24,18,00,7.00
2007,01,24,18,01,7.00